Date String (YYYY-MM-DD hh:mm:ss) UTC,Instrument flags,Ambient pressure (hPa),Sample flow (lpm),Bypass flow (lpm),Sample temperature (°C),Ambient temperature (°C),ASC tube jacket temperature (°C),LED temperature (°C),Box temperature (°C),Sample RH (%),Span deviation,Mass concentration (μg/m³),Mass concentration (μg/m³),Mass concentration (μg/m³)
DateTimeUTC,F1_M11,P_M11,Q1_M11,Q2_M11,T1_M11,T2_M11,T3_M11,T4_M11,T5_M11,U1_M11,ZSPAN_M11,X0_M11,X2_M11,X1_M11
2021-10-04 11:00:00,,0832.0,4.99,0.00,29.7,28.6,00.0,38.9,31.3,10.9,0000.0,0006.45,0003.56,0003.11
2021-10-04 11:01:00,,0832.1,5.01,0.00,29.7,28.6,00.0,38.9,31.4,10.9,0000.0,0006.33,0003.54,0003.11
2021-10-04 11:02:00,,0832.1,4.99,0.00,29.7,28.6,00.0,38.9,31.4,10.9,0000.0,0006.46,0003.54,0003.11
2021-10-04 11:03:00,,0832.1,5.01,0.00,29.7,28.6,00.0,38.9,31.4,10.9,0000.0,0006.35,0003.56,0003.12
2021-10-04 11:04:00,,0832.1,4.99,0.00,29.7,28.5,00.0,38.9,31.4,10.9,0000.0,0006.20,0003.55,0003.13
2021-10-04 11:05:00,,0832.1,5.00,0.00,29.7,28.6,00.0,38.9,31.4,10.9,0000.0,0005.96,0003.52,0003.13
2021-10-04 11:06:00,,0832.1,5.00,0.00,29.7,28.5,00.0,38.9,31.3,10.9,0000.0,0005.89,0003.51,0003.13
2021-10-04 11:07:00,,0832.1,5.00,0.00,29.7,28.5,00.0,38.8,31.3,10.9,0000.0,0005.97,0003.50,0003.12
2021-10-04 11:08:00,,0832.1,4.99,0.00,29.7,28.5,00.0,38.8,31.3,10.9,0000.0,0006.22,0003.53,0003.11
2021-10-04 11:09:00,,0832.1,5.01,0.00,29.7,28.5,00.0,38.8,31.3,10.9,0000.0,0006.20,0003.51,0003.10
2021-10-04 11:10:00,,0832.0,5.00,0.00,29.7,28.5,00.0,38.8,31.3,10.9,0000.0,0006.13,0003.48,0003.11
2021-10-04 11:11:00,,0832.1,4.99,0.00,29.7,28.5,00.0,38.8,31.3,10.9,0000.0,0006.03,0003.46,0003.11
2021-10-04 11:12:00,,0832.1,5.00,0.00,29.6,28.5,00.0,38.8,31.3,10.9,0000.0,0005.97,0003.45,0003.09
2021-10-04 11:13:00,,0832.1,5.00,0.00,29.6,28.4,00.0,38.8,31.3,10.9,0000.0,0006.34,0003.44,0003.08
2021-10-04 11:14:00,,0832.1,5.01,0.00,29.6,28.5,00.0,38.8,31.3,10.9,0000.0,0006.27,0003.42,0003.07
2021-10-04 11:15:00,,0832.1,4.98,0.00,29.6,28.5,00.0,38.8,31.3,11.0,0000.0,0006.47,0003.43,0003.04
2021-10-04 11:16:00,,0832.0,5.01,0.00,29.6,28.5,00.0,38.8,31.3,11.0,0000.0,0007.33,0003.43,0003.03
2021-10-04 11:17:00,,0832.1,4.99,0.00,29.6,28.5,00.0,38.8,31.3,11.0,0000.0,0007.44,0003.44,0003.03
2021-10-04 11:18:00,,0832.1,5.00,0.00,29.6,28.5,00.0,38.8,31.3,10.9,0000.0,0007.43,0003.43,0003.04
2021-10-04 11:19:00,,0832.1,4.99,0.00,29.6,28.5,00.0,38.8,31.3,11.0,0000.0,0007.06,0003.39,0003.04
2021-10-04 11:20:00,,0832.1,5.00,0.00,29.6,28.5,00.0,38.8,31.3,11.0,0000.0,0006.76,0003.39,0003.06
2021-10-04 11:21:00,,0832.0,4.99,0.00,29.6,28.5,00.0,38.8,31.3,11.0,0000.0,0006.87,0003.42,0003.07
2021-10-04 11:22:00,,0832.1,5.00,0.00,29.6,28.5,00.0,38.8,31.3,11.0,0000.0,0006.97,0003.43,0003.06
2021-10-04 11:23:00,,0832.1,5.01,0.00,29.6,28.6,00.0,38.8,31.3,11.0,0000.0,0007.07,0003.45,0003.07
2021-10-04 11:24:00,,0832.1,4.98,0.00,29.6,28.6,00.0,38.8,31.3,11.0,0000.0,0006.56,0003.44,0003.08
2021-10-04 11:25:00,,0832.1,5.01,0.00,29.6,28.5,00.0,38.8,31.3,11.0,0000.0,0006.61,0003.45,0003.09
2021-10-04 11:26:00,,0832.0,5.00,0.00,29.6,28.5,00.0,38.8,31.3,11.1,0000.0,0006.38,0003.44,0003.11
2021-10-04 11:27:00,,0832.1,5.00,0.00,29.6,28.5,00.0,38.8,31.3,11.1,0000.0,0005.57,0003.46,0003.12
2021-10-04 11:28:00,,0832.1,5.00,0.00,29.6,28.5,00.0,38.8,31.3,11.1,0000.0,0005.96,0003.47,0003.14
2021-10-04 11:29:00,,0832.1,5.00,0.00,29.6,28.4,00.0,38.8,31.2,11.1,0000.0,0006.79,0003.48,0003.14
2021-10-04 11:30:00,,0832.0,5.01,0.00,29.6,28.4,00.0,38.8,31.3,11.1,0000.0,0007.12,0003.49,0003.13
2021-10-04 11:31:00,,0832.1,4.99,0.00,29.6,28.5,00.0,38.8,31.3,11.1,0000.0,0007.18,0003.49,0003.14
2021-10-04 11:32:00,,0832.0,4.99,0.00,29.6,28.5,00.0,38.8,31.3,11.2,0000.0,0007.01,0003.46,0003.13
2021-10-04 11:33:00,,0832.1,5.02,0.00,29.6,28.4,00.0,38.8,31.3,11.2,0000.0,0006.90,0003.45,0003.13
2021-10-04 11:34:00,,0832.1,4.99,0.00,29.6,28.5,00.0,38.8,31.3,11.2,0000.0,0007.06,0003.51,0003.13
2021-10-04 11:35:00,,0832.1,5.01,0.00,29.6,28.5,00.0,38.8,31.3,11.2,0000.0,0007.10,0003.51,0003.12
2021-10-04 11:36:00,,0832.1,4.99,0.00,29.6,28.5,00.0,38.8,31.3,11.2,0000.0,0007.30,0003.53,0003.12
2021-10-04 11:37:00,,0832.1,5.02,0.00,29.6,28.5,00.0,38.8,31.3,11.2,0000.0,0007.32,0003.54,0003.13
2021-10-04 11:38:00,,0832.1,4.99,0.00,29.6,28.5,00.0,38.8,31.2,11.3,0000.0,0007.32,0003.53,0003.12
2021-10-04 11:39:00,,0832.1,5.00,0.00,29.6,28.5,00.0,38.8,31.2,11.3,0000.5,0006.76,0003.51,0003.11
2021-10-04 11:40:00,,0832.1,4.99,0.00,29.6,28.4,00.0,38.8,31.2,11.3,0002.5,0006.35,0003.51,0003.11
2021-10-04 11:41:00,,0832.1,5.00,0.00,29.6,28.5,00.0,38.8,31.2,11.3,0002.2,0006.45,0003.53,0003.13
2021-10-04 11:42:00,,0832.1,5.00,0.00,29.6,28.5,00.0,38.8,31.2,11.3,0000.2,0006.93,0003.56,0003.12
2021-10-04 11:43:00,,0832.1,5.00,0.00,29.6,28.5,00.0,38.8,31.2,11.3,0002.4,0007.01,0003.58,0003.12
2021-10-04 11:44:00,,0832.1,4.99,0.00,29.6,28.4,00.0,38.8,31.3,11.3,0002.5,0007.02,0003.59,0003.13
2021-10-04 11:45:00,,0832.1,5.01,0.00,29.6,28.4,00.0,38.8,31.3,11.3,0002.5,0006.85,0003.55,0003.13
2021-10-04 11:46:00,,0832.1,5.00,0.00,29.6,28.4,00.0,38.7,31.3,11.3,0002.1,0006.88,0003.54,0003.14
2021-10-04 11:47:00,,0832.1,5.00,0.00,29.6,28.4,00.0,38.7,31.3,11.3,0001.6,0006.80,0003.53,0003.13
2021-10-04 11:48:00,,0832.1,5.00,0.00,29.6,28.4,00.0,38.7,31.3,11.3,0001.5,0006.75,0003.52,0003.12
2021-10-04 11:49:00,,0832.1,4.99,0.00,29.6,28.4,00.0,38.7,31.2,11.4,0001.1,0006.70,0003.49,0003.12
2021-10-04 11:50:00,,0832.1,5.01,0.00,29.6,28.4,00.0,38.7,31.2,11.4,0000.7,0006.64,0003.46,0003.10
2021-10-04 11:51:00,,0832.1,5.00,0.00,29.6,28.4,00.0,38.7,31.3,11.4,0000.4,0006.27,0003.45,0003.08
2021-10-04 11:52:00,,0832.1,5.01,0.00,29.5,28.4,00.0,38.7,31.2,11.4,0000.0,0005.74,0003.41,0003.05
2021-10-04 11:53:00,,0832.2,5.01,0.00,29.5,28.4,00.0,38.7,31.2,11.4,0000.0,0005.28,0003.38,0003.04
2021-10-04 11:54:00,,0832.1,5.00,0.00,29.5,28.4,00.0,38.7,31.2,11.4,0000.0,0005.18,0003.37,0003.03
2021-10-04 11:55:00,,0832.1,5.00,0.00,29.5,28.4,00.0,38.7,31.2,11.4,0000.0,0005.24,0003.38,0003.04
2021-10-04 11:56:00,,0832.1,5.00,0.00,29.5,28.4,00.0,38.7,31.2,11.4,0000.0,0005.15,0003.36,0003.04
2021-10-04 11:57:00,,0832.2,5.00,0.00,29.5,28.4,00.0,38.7,31.2,11.4,0000.0,0005.47,0003.36,0003.03
2021-10-04 11:58:00,,0832.1,5.00,0.00,29.5,28.4,00.0,38.7,31.2,11.4,0000.0,0005.63,0003.34,0003.01
2021-10-04 11:59:00,,0832.2,4.99,0.00,29.5,28.5,00.0,38.7,31.2,11.4,0000.0,0006.37,0003.33,0003.00
